Weather History for KLNK - March, 2013

Change the Weather History Date:

Sunday, March 17, 2013

  Actual Average Record
Temperature  
Mean Temperature 37 °F 41 °F  
Max Temperature 48 °F 53 °F 84 °F (1894)
Min Temperature 25 °F 28 °F -5 °F (1906)
Degree Days  
Heating Degree Days 28 24  
Month to date heating degree days 535 469  
Since 1 July heating degree days 5163 5172  
Cooling Degree Days 0 0  
Month to date cooling degree days 0 0  
Year to date cooling degree days 0 0  
Moisture  
Dew Point 25 °F    
Average Humidity 71    
Maximum Humidity 96    
Minimum Humidity 46    
Precipitation  
Precipitation 0.03 in 0.07 in 1.09 in (1987)
Month to date precipitation 0.97 0.90  
Year to date precipitation 2.24 2.31  
Snow  
Snow 0.00 in 0.20 in - ()
Month to date snowfall 5.7 3.0  
Since 1 July snowfall 22.5 22.7  
Snow Depth 0.00 in    
Sea Level Pressure  
Sea Level Pressure 29.96 in    
Wind  
Wind Speed 11 mph (ESE)    
Max Wind Speed 18 mph    
Max Gust Speed 23 mph    
Visibility 9 miles    
Events Rain    
T = Trace of Precipitation, MM = Missing Value Source: NWS Daily Summary

Daily Weather History Graph

Daily Weather History Graph

Search for Another Location

Airport or City:

Trip Planner

Search our weather history database for the weather conditions in past years. The results will help you decide how hot, cold, wet, or windy it might be!

Date:

Astronomy

Mar. 17, 2013 Rise Set
Actual Time 7:34 AM CDT 7:36 PM CDT
Civil Twilight 7:07 AM CDT 8:03 PM CDT
Nautical Twilight 6:35 AM CDT 8:35 PM CDT
Astronomical Twilight 6:03 AM CDT 9:08 PM CDT
Moon 10:46 AM CDT (3/17) 12:47 AM CDT (3/17)
Length of Visible Light 12h 56m
Length of Day
12h 01m
Waxing Crescent, 31% of the Moon is Illuminated
Mar 17
Waxing Crescent
Mar 19
First Quarter
Mar 27
Full
Apr 2
Last Quarter
Apr 10
New

Hourly Weather History & Observations

Time (CDT) Temp. Windchill Dew Point Humidity Pressure Visibility Wind Dir Wind Speed Gust Speed Precip Events Conditions
12:54 AM 30.0 °F 21.1 °F 23.0 °F 75% 30.17 in 10.0 mi ENE 10.4 mph - N/A   Overcast
1:54 AM 28.9 °F 21.9 °F 21.9 °F 75% 30.15 in 10.0 mi ENE 6.9 mph - N/A   Mostly Cloudy
2:54 AM 28.0 °F 19.3 °F 21.9 °F 78% 30.14 in 10.0 mi ENE 9.2 mph - N/A   Clear
3:54 AM 27.0 °F 18.0 °F 21.0 °F 78% 30.12 in 10.0 mi ENE 9.2 mph - N/A   Clear
4:54 AM 26.1 °F 16.2 °F 21.0 °F 81% 30.11 in 9.0 mi ENE 10.4 mph - N/A   Partly Cloudy
5:10 AM 26.6 °F 16.2 °F 21.2 °F 80% 30.07 in 9.0 mi ENE 11.5 mph - N/A   Mostly Cloudy
5:41 AM 26.6 °F 15.7 °F 21.2 °F 80% 30.05 in 7.0 mi East 12.7 mph - N/A   Mostly Cloudy
5:54 AM 26.1 °F 16.8 °F 21.0 °F 81% 30.09 in 7.0 mi East 9.2 mph - N/A   Mostly Cloudy
6:11 AM 26.6 °F 17.5 °F 21.2 °F 80% 30.05 in 9.0 mi East 9.2 mph - N/A   Scattered Clouds
6:26 AM 26.6 °F 16.8 °F 21.2 °F 80% 30.06 in 10.0 mi East 10.4 mph - N/A   Mostly Cloudy
6:54 AM 26.1 °F 16.2 °F 19.9 °F 78% 30.11 in 10.0 mi East 10.4 mph - N/A   Scattered Clouds
7:02 AM 24.8 °F 16.1 °F 19.4 °F 80% 30.07 in 10.0 mi East 8.1 mph - N/A   Mostly Cloudy
7:54 AM 25.0 °F 17.1 °F 19.9 °F 81% 30.12 in 10.0 mi East 6.9 mph - N/A   Overcast
8:54 AM 26.1 °F 16.8 °F 19.9 °F 78% 30.12 in 10.0 mi East 9.2 mph - N/A   Overcast
9:23 AM 26.6 °F 18.2 °F 21.2 °F 80% 30.08 in 9.0 mi ESE 8.1 mph - N/A   Overcast
9:54 AM 28.0 °F 17.5 °F 19.9 °F 72% 30.11 in 8.0 mi ESE 12.7 mph - N/A   Overcast
10:54 AM 30.9 °F 22.2 °F 21.0 °F 67% 30.08 in 8.0 mi ESE 10.4 mph - N/A   Scattered Clouds
11:09 AM 30.2 °F 20.8 °F 21.2 °F 69% 30.03 in 8.0 mi ESE 11.5 mph - N/A   Mostly Cloudy
11:18 AM 30.2 °F 21.3 °F 21.2 °F 69% 30.02 in 9.0 mi East 10.4 mph - N/A   Scattered Clouds
11:54 AM 34.0 °F 26.0 °F 21.9 °F 61% 30.03 in 10.0 mi ESE 10.4 mph - N/A   Partly Cloudy
12:54 PM 37.0 °F 28.9 °F 23.0 °F 57% 29.98 in 10.0 mi SE 12.7 mph 18.4 mph N/A   Partly Cloudy
1:54 PM 41.0 °F 34.3 °F 25.0 °F 53% 29.95 in 10.0 mi SE 11.5 mph 20.7 mph N/A   Scattered Clouds
2:54 PM 44.1 °F 38.1 °F 27.0 °F 51% 29.89 in 10.0 mi SSE 11.5 mph 17.3 mph N/A   Scattered Clouds
3:54 PM 46.0 °F 39.9 °F 28.0 °F 50% 29.84 in 10.0 mi SSE 13.8 mph - N/A   Clear
4:54 PM 48.0 °F - 28.9 °F 48% 29.79 in 10.0 mi SSE 17.3 mph 21.9 mph N/A   Clear
5:54 PM 48.0 °F - 28.9 °F 48% 29.77 in 10.0 mi SSE 13.8 mph 21.9 mph N/A   Clear
6:54 PM 45.0 °F 38.9 °F 28.9 °F 53% 29.75 in 10.0 mi SE 12.7 mph - N/A   Overcast
7:54 PM 43.0 °F 36.0 °F 28.9 °F 58% 29.79 in 10.0 mi SE 13.8 mph - N/A   Overcast
8:17 PM 42.8 °F 35.4 °F 28.4 °F 57% 29.77 in 10.0 mi SE 15.0 mph - N/A   Overcast
8:54 PM 39.9 °F 32.1 °F 30.0 °F 68% 29.81 in 10.0 mi SE 13.8 mph - N/A   Overcast
9:54 PM 37.9 °F 30.5 °F 30.0 °F 73% 29.84 in 9.0 mi SE 11.5 mph - N/A   Overcast
10:34 PM 35.6 °F 27.1 °F 33.8 °F 93% 29.80 in 4.0 mi SE 12.7 mph - N/A   Overcast
10:47 PM 35.6 °F 25.9 °F 32.0 °F 87% 29.78 in 6.0 mi SE 16.1 mph - N/A   Overcast
10:54 PM 36.0 °F 29.0 °F 32.0 °F 86% 29.82 in 6.0 mi SE 9.2 mph - 0.00 in Rain Light Rain
11:06 PM 35.6 °F 28.6 °F 32.0 °F 87% 29.79 in 5.0 mi SE 9.2 mph - 0.01 in Rain Light Rain
11:17 PM 35.6 °F 29.2 °F 33.8 °F 93% 29.79 in 6.0 mi SSE 8.1 mph - 0.01 in Rain Light Rain
11:33 PM 33.8 °F 27.7 °F 32.0 °F 93% 29.81 in 4.0 mi South 6.9 mph - 0.01 in Rain Light Rain
11:54 PM 34.0 °F 29.8 °F 32.0 °F 92% 29.84 in 4.0 mi South 4.6 mph - 0.02 in Rain Light Rain